Regional Weather Roundup
Issued by NWS Upton, NY

Current Version | Previous Version | Text Only | Print | Product List | Glossary On
Versions: 1 2 3 4 5 6 7 8 9 10 11 12 13 14 15 16 17 18 19 20 21 22 23 24 25 26 27 28 29 30 31 32 33 34 35 36 37 38 39 40 41 42 43 44 45 46 47 48 49 50
000
ASUS41 KOKX 310804
RWROKX

REGIONAL WEATHER ROUNDUP
NATIONAL WEATHER SERVICE NEW YORK NY
400 AM EDT MON AUG 31 2015

NOTE: "FAIR" INDICATES FEW OR NO CLOUDS BELOW 12,000 FEET WITH NO
SIGNIFICANT WEATHER AND/OR OBSTRUCTIONS TO VISIBILITY.

NYZ071-072-176-178-NJZ106-104-310900-
NEW YORK CITY METRO AREA


CITY           SKY/WX    TMP DP  RH WIND       PRES   REMARKS
CENTRAL PARK   CLOUDY    77  67  71 W6        30.04S
LAGUARDIA APRT CLOUDY    78  66  66 SW8       30.00S
KENNEDY INTL   CLOUDY    76  68  76 SW10      30.02F
NEWARK/LIBERTY CLOUDY    77  67  71 SW9       30.01F
BRNX BOT. GARD   N/A     77  64  65 W8        30.01S
TETERBORO      CLOUDY    76  65  68 SW5       30.00S
$$

NYZ177-179-078>081-310900-
LONG ISLAND NEW YORK

CITY           SKY/WX    TMP DP  RH WIND       PRES   REMARKS
FARMINGDALE    CLOUDY    75  68  78 SW5       30.01F
ISLIP          MOCLDY    73  68  84 SW5       30.00S
SHIRLEY        MOCLDY    74  69  85 SW6       30.02S
WESTHAMPTON    MOCLDY    74  70  87 SW6       30.02F
MONTAUK POINT    N/A     76  70  82 VRB5      30.01F
$$

NYZ052-065-067-310900-
HUDSON VALLEY

CITY           SKY/WX    TMP DP  RH WIND       PRES   REMARKS
WHITE PLAINS   MOCLDY    74  66  76 CALM      30.01S
NEWBURGH       CLEAR     70  68  94 CALM      30.03S
MONTGOMERY     MOCLDY    68  66  93 CALM      30.01F FOG
POUGHKEEPSIE   MOCLDY    67  64  90 CALM      30.00F
ALBANY         PTCLDY    67  64  90 CALM      30.00F
$$

NJZ001-105-106-008-010-013-015-019>022-104-310900-
NEW JERSEY

CITY           SKY/WX    TMP DP  RH WIND       PRES   REMARKS
NEWARK/LIBERTY CLOUDY    77  67  71 SW9       30.01F
TETERBORO      CLOUDY    76  65  68 SW5       30.00S
CALDWELL       CLOUDY    74  65  73 CALM      30.02S
MORRISTOWN     CLOUDY    68  63  83 CALM      30.02S
SOMERVILLE     CLOUDY    70  66  87 CALM      30.01S
SUSSEX         MOCLDY    68  66  93 CALM      30.03S FOG
ANDOVER          N/A     67  66  97 CALM      30.04S
TRENTON        NOT AVBL
MILLVILLE      CLOUDY    75  68  78 SW3       30.06F
ATLANTIC CITY  CLOUDY    75  68  78 SW6       30.05F
WRIGHTSTOWN    CLOUDY    72  66  81 W1        30.02S
TOMS RIVER     CLOUDY    72  64  78 SW5       30.05S
BELMAR         CLOUDY    73  61  64 SW5       30.04S
$$

PAZ047>061-062-071-310900-
EASTERN PENNSYLVANIA

CITY           SKY/WX    TMP DP  RH WIND       PRES   REMARKS
PHILADELPHIA   NOT AVBL
ALLENTOWN      MOCLDY    69  66  90 CALM      30.03F FOG
SCRANTON       MOCLDY    69  65  86 CALM      30.05F
$$

CTZ002-004>006-009-010-012-RIZ004-006-007-MAZ004-011-015-310900-
SOUTHERN NEW ENGLAND
 IN CT

CITY           SKY/WX    TMP DP  RH WIND       PRES   REMARKS
BRADLEY INTL   MOCLDY    67  65  93 CALM      29.99S
HARTFORD       MOCLDY    69  68  96 CALM      29.98F
DANBURY        MOCLDY    68  64  87 CALM      30.03S
WTRBRY/OXFORD  MOCLDY    70  63  78 CALM      30.04S
BRIDGEPORT     MOCLDY    76  71  85 SW6       30.00S
MERIDEN        MOCLDY    68  65  90 CALM      29.99F FOG
NEW HAVEN      MOCLDY    74  69  85 CALM      30.00F
CHESTER        NOT AVBL
GROTON         MOCLDY    73  71  93 CALM      29.99F
WILLIMANTIC    CLOUDY    67  65  93 CALM      30.00F FOG

 IN RI

CITY           SKY/WX    TMP DP  RH WIND       PRES   REMARKS
PROVIDENCE     PTCLDY    71  68  90 W5        29.99F
BLOCK ISLAND   MOCLDY    72  72 100 SW8       30.00F
WESTERLY       MOCLDY    72  69  90 CALM      30.00F

 IN MA

CITY           SKY/WX    TMP DP  RH WIND       PRES   REMARKS
BOSTON         PTCLDY    73  65  75 SW8       29.97F
WORCESTER      PTCLDY    68  62  81 W8        30.02F
WESTFIELD      PTCLDY    65  64  97 CALM      29.99F FOG
PROVINCETOWN   PTCLDY    70  63  78 SW9       29.98S
NANTUCKET      PTCLDY    73  70  90 SW10      30.00F
$$

ANZ330-335-338-340-345-350-353-355-310900-
COASTAL MARINE OBSERVATIONS


STATION/POSITION TIME  SKY/WX   TEMP    WIND        PRES    VSBY  WAVE
                                AIR SEA DIR/SP/G                  HT/PER
                 (UTC)          (F)     (DEG/KT/KT) (MB)    (MI)  (FT/S)
NY HARB ENTRANCE 0650            76 76  230/ 12/ 16 1016.5          3/10
4S FIRE IS       NOT AVBL
20S FIRE ISLAND  0650            75 74  240/ 12/ 14 1016.8          4/ 5
GREAT SOUTH BAY  0700            77 78  250/ 14/ 16   N/A
23SW MTP         0750            75 73  250/ 16/ 17 1015.5          4/ 5
HUDSON CANYON    NOT AVBL
KINGS POINT      NOT AVBL
EXECUTION ROCKS  0700            78     230/  8/ 12   N/A
CENTRAL LI SOUND NOT AVBL
EASTERN LI SOUND 0700            73 69  270/  4/  8   N/A
ROBBINS REEF     NOT AVBL
$$


>>>>>>>>>>>>>>>>>>>>>>>>>>>> KEY <<<<<<<<<<<<<<<<<<<<<<<<<<<
>                                                          <
>     SKY/WX - SKY CONDITION/PRESENT WEATHER               <
>     TMP    - TEMPERATURE IN FAHRENHEIT                   <
>     DP     - DEWPOINT IN FAHRENHEIT                      <
>     RH     - RELATIVE HUMIDITY IN PERCENT                <
>     WIND   - DIRECTION AND SPEED IN MPH                  <
>     PRES   - MEAN SEA LEVEL PRESSURE IN INCHES OF HG     <
>     WCI    - WIND CHILL INDEX                            <
>     VSB    - VISIBILITY IN MILES                         <
>     HX     - HEAT INDEX                                  <
>     TC     - TEMPERATURE IN CELSIUS                      <
>     VRB    - VARIABLE WIND DIRECTION                     <
>                                                          <
>>>>>>>>>>>>>>>>>>>>>>>>>>>> KEY <<<<<<<<<<<<<<<<<<<<<<<<<<<




USA.gov is the U.S. government's official web portal to all federal, state and local government web resources and services.